GSAT0214 (GALILEO 18) (41862 NORAD) Tracking and Keplerian Element Data

This shows tracking and keplerian element data for the satellite.

Feedback or suggestion? Click here.




ElementValue
Catalog41862
NameGSAT0214 (GALILEO 18)
Epoch Orbit5114
Epoch Day34.51723303
Epoch Year2025
RAAN114.8982
Inclination55.2009
Eccentricity0.0003413
Argument of Perigee277.4418
Mean Anonmoly82.5675
Mean Motion1.70474807
Decay Rate-7E-08
L11 41862U 16069D 25034.51723303 -.00000007 00000+0 00000+0 0 9997
L22 41862 55.2009 114.8982 0003413 277.4418 82.5675 1.70474807 51143



Live tracking and technical data element details for GSAT0214 (GALILEO 18) (NORAD 41862). GSAT0214 (GALILEO 18) can be tracked NOW for your location showing map with azimuth and elevation plus other details from your city location.







IsCatalogInMostPopularTable: catalog: 41862, numindb: 714
Update: records affected: 1



GetName: 41862 GSAT0214 (GALILEO 18)

Hit Count: updated at: Sat, 17 May 2025 09:16:38 GMT